Earlysville, VA

12:00 AM EDT on September 28, 2016 (GMT -0400)
Charlottesville-Albemarle

Weather History for KCHO - September, 2013

Change the Weather History Date:

Sunday, September 22, 2013

  Actual Average Record
Temperature  
Mean Temperature 64 °F 64 °F  
Max Temperature 74 °F 76 °F 97 °F (1931)
Min Temperature 53 °F 53 °F 40 °F (1904)
Degree Days  
Heating Degree Days 1 3  
Month to date heating degree days 35 23  
Since 1 July heating degree days 40 26  
Cooling Degree Days 0 2  
Month to date cooling degree days 106 98  
Year to date cooling degree days 1108 1008  
Growing Degree Days 12 (Base 50)    
Moisture  
Dew Point 55 °F    
Average Humidity 74    
Maximum Humidity 100    
Minimum Humidity 47    
Precipitation  
Precipitation 0.00 in 0.17 in 0.59 in (2002)
Month to date precipitation 0.65 3.03  
Year to date precipitation 34.17 31.17  
Sea Level Pressure  
Sea Level Pressure 29.81 in    
Wind  
Wind Speed 3 mph (NNW)    
Max Wind Speed 10 mph    
Max Gust Speed -    
Visibility 5 miles    
Events Fog    
T = Trace of Precipitation, MM = Missing Value Source: NWS Daily Summary

Daily Weather History Graph

Daily Weather History Graph

Search for Another Location

Airport or City:

Trip Planner

Search our weather history database for the weather conditions in past years. The results will help you decide how hot, cold, wet, or windy it might be!

Date:

Astronomy

Sep. 22, 2013 Rise Set
Actual Time 7:01 AM EDT 7:10 PM EDT
Civil Twilight 6:35 AM EDT 7:36 PM EDT
Nautical Twilight 6:04 AM EDT 8:07 PM EDT
Astronomical Twilight 5:33 AM EDT 8:38 PM EDT
Moon 9:02 PM EDT (9/22) 10:16 AM EDT (9/22)
Length of Visible Light 13h 01m
Length of Day
12h 08m
Waning Gibbous, 89% of the Moon is Illuminated
Sep 22
Waning Gibbous
Sep 26
Last Quarter
Oct 4
New
Oct 11
First Quarter
Oct 18
Full

Hourly Weather History & Observations

Time (EDT) Temp. Dew Point Humidity Pressure Visibility Wind Dir Wind Speed Gust Speed Precip Events Conditions
12:18 AM 60.8 °F 59.0 °F 94% 29.76 in 5.0 mi Calm Calm - N/A   Partly Cloudy
12:41 AM 60.8 °F 59.0 °F 94% 29.76 in 1.5 mi Calm Calm - N/A   Clear
12:44 AM 60.8 °F 59.0 °F 94% 29.76 in 0.8 mi Calm Calm - N/A   Mist
12:53 AM 60.1 °F 59.0 °F 96% 29.75 in 0.8 mi Calm Calm - N/A   Mist
1:04 AM 59.0 °F 59.0 °F 100% 29.76 in 1.2 mi Calm Calm - N/A   Partly Cloudy
1:11 AM 60.8 °F 60.8 °F 100% 29.76 in 3.0 mi Calm Calm - N/A   Partly Cloudy
1:20 AM 60.8 °F 59.0 °F 94% 29.76 in 1.8 mi Calm Calm - N/A   Clear
1:27 AM 60.8 °F 59.0 °F 94% 29.76 in 0.8 mi Calm Calm - N/A   Mist
1:51 AM 59.0 °F 57.2 °F 94% 29.77 in 0.2 mi Calm Calm - N/A Fog Fog
1:53 AM 59.0 °F 57.9 °F 96% 29.76 in 0.2 mi Calm Calm - N/A Fog Fog
2:22 AM 60.8 °F 59.0 °F 94% 29.77 in 0.2 mi Calm Calm - N/A Fog Fog
2:53 AM 59.0 °F 59.0 °F 100% 29.76 in 0.2 mi Calm Calm - N/A Fog Fog
3:44 AM 57.2 °F 57.2 °F 100% 29.78 in 2.0 mi Calm Calm - N/A   Mostly Cloudy
3:46 AM 57.2 °F 57.2 °F 100% 29.78 in 4.0 mi NW 3.5 mph - N/A   Scattered Clouds
3:53 AM 57.0 °F 55.9 °F 96% 29.77 in 10.0 mi Calm Calm - N/A   Partly Cloudy
4:48 AM 55.4 °F 55.4 °F 100% 29.78 in 1.5 mi Calm Calm - N/A   Clear
4:50 AM 55.4 °F 55.4 °F 100% 29.78 in 1.0 mi Calm Calm - N/A   Mist
4:53 AM 55.9 °F 55.0 °F 97% 29.77 in 0.5 mi Calm Calm - N/A Fog Fog
5:20 AM 55.4 °F 55.4 °F 100% 29.79 in 1.2 mi Calm Calm - N/A   Scattered Clouds
5:26 AM 55.4 °F 55.4 °F 100% 29.79 in 0.8 mi Calm Calm - N/A   Mist
5:53 AM 55.0 °F 54.0 °F 96% 29.78 in 1.2 mi Calm Calm - N/A   Partly Cloudy
6:03 AM 53.6 °F 53.6 °F 100% 29.80 in 0.8 mi Calm Calm - 0.01 in   Mist
6:18 AM 53.6 °F 53.6 °F 100% 29.80 in 1.0 mi Calm Calm - 0.01 in   Mist
6:35 AM 53.6 °F 53.6 °F 100% 29.81 in 1.0 mi West 3.5 mph - 0.01 in   Clear
6:53 AM 54.0 °F 54.0 °F 100% 29.81 in 1.0 mi West 4.6 mph - 0.01 in   Clear
7:00 AM 53.6 °F 53.6 °F 100% 29.82 in 8.0 mi West 3.5 mph - N/A   Clear
7:07 AM 53.6 °F 53.6 °F 100% 29.82 in 1.2 mi Calm Calm - N/A   Clear
7:10 AM 53.6 °F 53.6 °F 100% 29.82 in 10.0 mi Calm Calm - N/A   Clear
7:53 AM 55.0 °F 54.0 °F 96% 29.83 in 10.0 mi Calm Calm - N/A   Clear
8:53 AM 61.0 °F 57.0 °F 87% 29.83 in 10.0 mi Calm Calm - N/A   Clear
9:53 AM 66.0 °F 57.0 °F 73% 29.85 in 10.0 mi North 4.6 mph - N/A   Clear
10:53 AM 69.1 °F 55.0 °F 61% 29.86 in 10.0 mi NE 4.6 mph - N/A   Clear
11:53 AM 71.1 °F 53.1 °F 53% 29.84 in 10.0 mi Variable 5.8 mph - N/A   Partly Cloudy
12:53 PM 71.1 °F 51.1 °F 49% 29.85 in 10.0 mi North 9.2 mph - N/A   Scattered Clouds
1:53 PM 72.0 °F 52.0 °F 49% 29.84 in 10.0 mi Variable 3.5 mph - N/A   Scattered Clouds
2:53 PM 70.0 °F 51.1 °F 51% 29.83 in 10.0 mi North 5.8 mph - N/A   Mostly Cloudy
3:53 PM 70.0 °F 51.1 °F 51% 29.83 in 10.0 mi North 3.5 mph - N/A   Mostly Cloudy
4:53 PM 72.0 °F 50.0 °F 46% 29.83 in 10.0 mi Variable 5.8 mph - N/A   Clear
5:53 PM 71.1 °F 50.0 °F 47% 29.83 in 10.0 mi North 3.5 mph - N/A   Mostly Cloudy
6:53 PM 66.9 °F 53.1 °F 61% 29.86 in 10.0 mi NE 4.6 mph - N/A   Mostly Cloudy
7:53 PM 60.1 °F 55.9 °F 86% 29.87 in 10.0 mi Calm Calm - N/A   Mostly Cloudy
8:53 PM 59.0 °F 55.0 °F 87% 29.89 in 10.0 mi NW 4.6 mph - N/A   Mostly Cloudy
9:53 PM 57.9 °F 54.0 °F 87% 29.92 in 10.0 mi Calm Calm - N/A   Scattered Clouds
10:53 PM 55.9 °F 50.0 °F 80% 29.94 in 10.0 mi NNE 4.6 mph - N/A   Clear
11:53 PM 57.0 °F 51.1 °F 81% 29.96 in 10.0 mi Calm Calm - N/A   Clear